Wetbulb
57.16 57.03 56.97 56.90 56.82 56.59 56.35 56.41 56.54 56.75 56.34 55.93 55.95 55.87 55.68 55.53 55.57 55.77 55.69 55.87 55.81 55.18 55.37 55.63 56.21 56.33 52.02 46.25 45.74 66.18 72.20 70.32 72.27 64.68 63.99 60.16 61.94 57.39 51.86 53.63 58.73 56.85 58.35 57.90 59.71 58.34 61.16
57.54 57.58 57.21 57.06 56.59 56.24 56.06 56.14 56.17 56.39 56.43 56.29 56.30 56.15 56.21 56.21 56.03 55.95 56.07 55.87 55.58 54.90 55.15 55.57 56.18 55.98 47.03 37.29 48.90 53.12 66.45 66.45 65.04 60.61 56.61 55.23 54.99 53.36 49.37 48.32 52.51 52.63 55.03 56.98 54.59 54.14 59.02
57.50 57.09 56.81 56.78 56.52 56.20 56.14 56.04 56.11 56.00 56.08 55.91 56.11 56.14 56.05 56.05 55.76 55.87 55.78 55.10 54.67 54.38 55.24 56.19 56.57 53.82 49.82 42.06 50.24 52.19 61.25 60.09 61.31 59.68 55.18 55.56 54.34 53.56 50.57 48.01 51.59 51.99 49.93 51.65 52.19 52.46 58.66
56.56 56.40 56.36 56.04 55.75 56.03 56.04 55.89 55.61 55.76 55.65 55.53 55.38 55.63 55.76 55.59 55.48 55.30 54.34 53.59 54.27 55.19 56.53 57.57 57.28 52.17 42.01 51.09 52.99 51.82 50.70 51.69 61.02 58.29 55.13 57.56 54.92 50.80 48.92 51.00 50.38 46.63 45.68 43.86 50.09 52.80 57.95
56.27 56.13 55.80 55.73 55.42 55.58 55.82 55.59 55.11 55.34 55.15 55.25 55.23 55.19 55.19 55.09 54.66 53.90 52.78 52.87 55.02 58.35 58.07 58.24 51.96 48.56 43.23 58.15 53.82 52.63 50.61 49.14 54.94 56.61 55.81 58.66 54.02 49.38 48.37 45.51 42.84 42.44 41.33 43.60 46.79 50.87 54.27
55.99 55.66 55.48 54.87 54.56 55.24 55.18 54.99 54.71 54.91 54.66 54.70 54.58 54.47 54.45 54.35 53.73 52.70 51.85 53.30 53.64 57.57 56.80 56.56 56.45 46.04 49.92 49.64 55.65 56.44 51.48 52.16 49.85 51.60 52.27 52.72 47.53 44.36 41.81 41.97 38.03 40.37 40.68 42.31 44.54 48.57 54.24
55.14 55.29 55.14 54.36 54.02 54.31 54.18 54.26 54.12 54.28 54.37 54.41 54.10 53.96 53.80 53.55 52.72 51.60 49.88 44.41 42.65 41.85 43.94 48.29 47.80 48.11 50.79 52.35 54.60 52.96 52.39 50.46 51.74 49.26 44.82 47.11 43.11 41.24 40.91 43.53 45.44 45.12 43.22 43.76 46.01 48.89 49.35
54.91 55.18 54.70 53.83 53.66 53.51 53.34 53.46 53.45 53.66 53.90 54.06 53.88 53.67 53.45 52.72 51.82 51.45 45.05 43.08 42.35 41.77 37.12 45.19 44.66 46.65 52.10 50.78 48.15 50.39 52.39 47.04 46.98 43.81 45.87 42.17 42.99 45.82 46.64 45.87 45.56 44.49 42.72 42.91 45.32 48.63 46.33
54.19 53.76 53.65 53.81 54.06 54.11 53.94 54.02 53.92 53.92 53.77 53.59 53.53 53.20 52.72 51.95 51.35 45.38 42.46 42.29 45.98 42.63 35.05 41.48 44.72 45.14 46.11 48.57 46.44 47.50 49.97 47.73 44.89 43.83 44.16 43.59 44.09 49.24 48.19 44.98 43.85 41.88 42.42 42.49 43.51 46.32 46.42
53.81 54.16 54.38 53.99 53.99 53.82 53.92 53.84 53.77 53.63 53.65 53.41 53.47 53.08 52.19 50.96 42.65 43.61 41.58 45.16 45.23 44.82 32.01 39.39 40.88 44.71 47.13 47.47 43.98 51.42 51.81 49.51 46.24 44.97 43.75 42.65 46.81 47.28 44.96 45.03 45.08 38.26 45.10 46.32 45.29 42.24 39.04
53.80 53.83 53.91 53.60 53.47 53.47 53.67 53.43 53.32 53.36 53.14 53.20 53.18 52.77 51.20 50.38 42.81 40.97 42.41 45.85 46.24 38.78 29.84 46.57 41.65 48.02 46.23 44.47 45.26 46.79 53.85 49.94 45.53 44.65 44.76 42.90 44.29 44.62 44.05 44.89 45.99 44.13 47.09 45.49 45.19 41.99 39.73
53.38 52.94 52.75 52.72 52.67 53.06 53.18 53.03 53.05 52.99 53.02 52.89 52.61 51.81 50.99 45.89 42.48 44.03 45.39 44.77 39.58 34.70 29.01 42.04 43.81 41.74 41.80 42.77 44.03 47.59 49.67 51.46 49.76 46.08 44.83 45.86 47.50 47.77 45.88 47.30 47.59 48.10 45.10 42.13 40.83 38.98 34.92
52.71 52.64 52.62 52.65 52.98 53.14 52.99 52.83 52.91 52.73 52.50 52.14 51.22 50.01 49.14 47.82 40.02 44.22 44.74 39.39 31.30 28.00 41.46 40.04 38.76 41.00 40.20 40.00 41.92 44.05 44.85 45.71 43.60 39.14 38.98 43.83 46.23 45.62 47.23 43.90 44.76 44.86 40.16 33.25 32.28 33.15 36.19
52.69 52.86 53.12 53.28 53.12 53.07 52.93 52.99 52.87 52.65 52.15 51.38 49.66 49.00 45.87 46.44 45.36 43.92 40.12 34.25 24.44 36.09 34.79 40.95 40.85 40.37 37.73 40.33 40.43 41.99 42.59 43.93 45.12 42.97 39.67 39.56 36.88 45.68 46.64 44.76 42.31 41.23 39.48 33.21 29.08 29.54 35.45
52.42 53.11 53.06 53.14 52.89 52.99 52.89 52.85 52.52 52.32 51.77 50.81 49.20 42.24 41.03 42.92 45.94 42.41 35.93 26.22 28.13 32.26 39.40 38.20 39.01 36.26 36.58 39.60 38.96 39.37 38.13 42.45 45.89 42.64 40.13 38.15 39.67 46.61 47.31 46.62 47.38 40.14 40.01 41.92 34.28 33.41 32.55
51.77 52.82 52.83 53.14 52.97 53.01 52.87 52.81 52.46 52.28 51.68 50.30 42.85 40.01 38.38 44.58 43.00 39.87 33.23 28.71 31.08 39.35 40.37 39.21 32.91 36.74 33.05 36.03 36.53 36.44 36.97 41.64 41.87 45.11 42.23 39.56 36.56 42.86 48.00 47.41 46.20 43.00 43.42 37.76 31.98 30.56 29.29
51.75 52.63 52.93 53.22 53.14 52.99 53.07 53.10 52.42 51.99 51.24 49.77 37.80 33.86 39.92 44.22 40.99 35.39 25.73 28.81 34.77 40.58 41.28 36.88 35.02 34.63 35.08 35.01 36.56 35.32 37.10 41.63 43.87 44.05 44.08 38.41 36.63 37.79 42.59 42.49 44.05 40.23 38.83 36.21 38.54 34.09 31.36
52.15 52.79 53.08 53.18 52.99 53.10 53.14 52.85 52.07 51.43 50.09 43.78 36.64 29.14 40.29 41.23 30.36 29.52 28.88 32.33 39.04 38.18 40.07 38.15 38.49 37.10 35.90 37.35 35.26 35.91 36.96 39.90 44.94 44.61 39.25 40.21 33.12 35.54 39.06 42.21 47.11 47.74 43.95 39.09 37.67 33.96 32.87
52.54 52.87 53.26 53.12 52.87 53.14 53.18 52.77 51.79 50.86 50.16 41.99 36.35 36.07 40.50 38.36 25.42 26.52 32.94 34.02 36.89 37.45 37.04 36.07 35.58 37.33 37.90 35.11 31.95 37.37 38.22 44.21 43.56 42.27 40.46 40.43 32.95 30.88 33.93 39.05 41.08 39.35 43.65 42.07 40.15 36.16 37.70
51.79 52.21 52.30 52.89 53.04 53.31 53.14 52.48 51.65 50.79 50.36 40.68 37.65 30.51 32.73 37.85 32.26 28.59 29.02 29.34 31.85 39.65 38.86 38.31 36.31 37.31 35.59 33.74 35.08 33.71 36.91 42.18 43.28 43.22 47.99 41.42 32.17 31.74 30.84 33.55 38.34 37.87 41.02 41.68 41.92 39.27 40.17
51.73 52.21 52.11 52.19 52.85 53.06 53.14 52.49 51.79 50.90 49.91 41.17 33.57 28.66 34.52 28.72 29.52 32.91 28.24 29.82 31.88 31.44 36.82 38.81 36.22 34.29 32.90 28.64 32.11 32.78 36.36 37.59 40.98 44.04 40.24 36.58 31.51 32.85 35.44 39.10 40.06 40.26 40.89 42.13 39.37 42.34 39.57
51.96 51.70 51.83 51.84 52.65 53.18 53.16 52.74 52.11 51.03 48.82 40.44 36.35 34.56 36.26 33.78 35.40 33.17 30.38 27.55 31.30 32.27 33.51 33.37 34.40 35.40 34.52 29.61 31.62 30.49 33.50 33.20 34.26 37.91 34.71 34.57 32.12 32.67 33.59 39.68 40.28 38.69 41.83 43.17 43.02 42.52 41.73
51.64 51.70 51.89 51.78 51.90 52.75 52.94 52.58 52.23 51.09 46.72 37.55 39.68 40.99 38.65 34.98 34.78 31.47 28.76 31.47 31.63 33.12 35.11 37.57 36.28 33.04 31.99 34.65 37.62 37.34 36.64 36.61 36.54 34.27 32.99 32.26 31.72 30.60 29.06 36.73 37.03 35.54 40.78 42.72 43.45 43.86 43.97
51.60 51.56 51.81 51.85 51.86 51.84 52.71 52.85 52.29 51.50 47.98 43.55 42.52 42.56 37.12 31.84 32.59 32.57 33.77 33.97 32.67 33.49 32.44 35.42 36.62 33.42 36.57 39.54 38.95 36.08 34.02 33.88 35.47 35.87 36.47 31.82 31.35 31.11 29.09 32.14 28.37 38.63 44.36 47.47 44.92 46.15 46.15
51.66 51.68 51.74 51.75 51.89 51.75 51.88 52.44 52.58 51.91 50.36 42.02 41.11 40.95 38.88 32.55 33.87 33.28 33.79 34.25 33.55 34.00 32.49 33.42 36.24 36.89 38.35 37.00 30.74 28.18 27.64 29.17 33.50 36.84 36.02 37.27 31.53 29.69 28.90 29.00 35.71 40.52 45.72 47.19 45.29 44.63 47.48
51.49 51.47 51.60 51.72 51.83 51.62 51.82 51.87 52.15 51.99 51.13 42.96 40.67 41.48 41.50 35.35 31.76 36.36 33.50 34.28 30.92 30.32 31.21 33.98 37.51 38.05 36.55 32.95 29.06 22.69 23.27 26.65 28.83 33.79 36.63 35.00 36.88 31.48 29.15 28.23 28.78 39.14 48.71 52.79 50.89 41.27 53.64
51.32 51.49 51.62 51.64 51.76 51.89 52.17 52.07 51.97 51.82 51.19 44.65 42.16 42.04 42.04 36.26 37.79 37.60 33.87 32.51 35.78 34.91 32.18 33.69 35.24 34.14 35.31 34.51 29.04 24.67 24.64 31.98 26.42 28.55 28.28 29.55 31.47 29.32 30.92 30.54 35.13 44.59 51.08 54.94 41.57 44.25 55.69
51.65 52.03 52.07 52.02 51.74 51.89 52.00 51.98 51.84 51.87 51.93 46.42 43.34 43.59 43.40 38.52 37.23 38.00 39.66 36.57 35.98 35.34 30.93 33.98 32.34 32.99 32.45 31.22 31.18 29.15 27.20 29.80 28.33 31.77 30.72 30.13 29.94 30.01 31.15 30.59 29.59 48.96 51.94 49.60 52.17 55.65 56.32
51.70 51.90 51.92 52.09 52.23 52.04 52.00 52.14 52.27 52.33 52.00 50.37 43.72 43.84 45.61 40.97 39.70 42.48 42.01 42.41 40.87 39.48 37.21 37.59 35.87 31.60 32.81 29.93 32.86 30.68 30.68 32.44 32.58 26.96 35.30 29.69 36.50 35.24 36.26 36.03 43.49 50.43 50.04 55.15 56.47 55.14 56.06
MSLP
1023.59 1023.21 1022.84 1022.46 1022.08 1021.68 1021.26 1020.81 1020.28 1019.79 1019.31 1018.79 1018.21 1017.61 1016.99 1016.37 1015.75 1015.12 1014.47 1013.86 1013.24 1012.75 1012.48 1012.31 1012.15 1012.01 1011.81 1010.64 1006.43 1004.34 1003.99 1004.70 1005.60 1005.91 1006.27 1007.02 1007.99 1008.25 1008.38 1008.15 1008.08 1007.71 1006.60 1006.12 1005.13 1005.20 1005.14
1023.63 1023.27 1022.91 1022.57 1022.23 1021.84 1021.38 1020.89 1020.35 1019.81 1019.24 1018.63 1018.02 1017.40 1016.70 1015.98 1015.24 1014.47 1013.80 1013.19 1012.70 1012.16 1011.69 1011.61 1011.71 1011.88 1011.71 1009.00 1004.09 1003.97 1004.09 1004.67 1005.27 1005.94 1006.36 1006.49 1006.84 1007.32 1007.55 1007.52 1007.43 1006.46 1006.01 1005.54 1004.87 1004.41 1004.72
1023.73 1023.42 1023.05 1022.68 1022.30 1021.91 1021.44 1020.89 1020.35 1019.82 1019.23 1018.60 1017.91 1017.20 1016.47 1015.66 1014.78 1013.81 1012.88 1012.05 1011.49 1011.01 1010.57 1010.51 1010.94 1011.45 1010.51 1005.75 1003.58 1003.78 1004.20 1004.38 1004.49 1005.14 1005.89 1005.94 1006.07 1006.75 1006.72 1007.04 1006.57 1006.16 1006.09 1005.34 1004.59 1004.13 1004.12
1023.94 1023.59 1023.18 1022.80 1022.41 1021.98 1021.46 1020.91 1020.37 1019.81 1019.17 1018.50 1017.72 1016.85 1016.03 1015.22 1014.29 1013.15 1011.97 1010.98 1010.16 1009.32 1008.96 1009.21 1010.11 1010.80 1008.30 1003.93 1003.64 1004.02 1004.24 1004.51 1004.75 1004.97 1005.24 1005.20 1005.76 1006.32 1006.69 1006.51 1006.32 1006.23 1006.00 1005.50 1004.42 1003.92 1003.76
1024.10 1023.73 1023.32 1022.90 1022.48 1022.02 1021.51 1020.95 1020.33 1019.68 1018.99 1018.25 1017.49 1016.67 1015.70 1014.64 1013.69 1012.67 1011.39 1010.21 1009.47 1008.77 1008.56 1009.02 1010.10 1010.03 1006.12 1003.49 1003.60 1002.79 1003.33 1003.97 1004.62 1005.25 1005.44 1005.52 1006.28 1006.76 1006.97 1007.21 1007.21 1006.80 1006.03 1005.18 1004.44 1003.52 1003.95
1024.14 1023.74 1023.38 1022.98 1022.50 1021.98 1021.44 1020.87 1020.29 1019.67 1018.93 1018.12 1017.27 1016.40 1015.46 1014.51 1013.36 1012.12 1010.79 1009.74 1009.57 1009.27 1009.50 1009.42 1009.31 1009.40 1004.76 1002.64 1002.03 1002.08 1002.69 1002.98 1004.17 1005.06 1005.68 1005.85 1006.50 1006.89 1007.10 1007.28 1006.61 1006.74 1006.10 1005.14 1004.47 1003.92 1004.00
1024.33 1023.91 1023.50 1023.13 1022.60 1022.02 1021.42 1020.87 1020.25 1019.56 1018.81 1017.95 1017.06 1016.19 1015.18 1014.18 1013.14 1012.01 1010.62 1009.99 1010.15 1009.88 1009.25 1007.87 1006.84 1005.39 1003.14 1001.76 1001.31 1001.62 1002.09 1002.90 1003.47 1004.46 1005.34 1005.76 1006.67 1006.00 1006.34 1006.37 1006.41 1006.28 1005.82 1005.19 1004.50 1003.87 1004.15
1024.48 1024.02 1023.68 1023.18 1022.65 1022.12 1021.53 1020.94 1020.29 1019.62 1018.84 1017.93 1016.96 1016.07 1015.14 1013.88 1012.89 1011.88 1011.06 1011.33 1012.27 1012.67 1010.08 1006.54 1005.07 1004.41 1002.89 1002.46 1001.92 1001.29 1001.38 1002.40 1003.13 1003.85 1004.67 1005.96 1004.94 1005.73 1006.06 1006.14 1006.15 1006.06 1005.84 1005.24 1004.96 1004.16 1004.31
1024.59 1024.24 1023.79 1023.27 1022.74 1022.20 1021.59 1020.94 1020.27 1019.57 1018.77 1017.91 1016.85 1015.98 1015.29 1014.07 1012.62 1012.32 1012.57 1011.94 1012.08 1012.09 1010.94 1005.09 1003.27 1002.34 1001.90 1002.27 1001.81 1000.73 1000.79 1001.18 1001.85 1003.12 1003.66 1004.22 1004.10 1004.80 1005.33 1005.56 1005.80 1005.57 1005.38 1005.11 1005.15 1004.77 1004.66
1024.69 1024.27 1023.78 1023.28 1022.76 1022.20 1021.60 1020.95 1020.26 1019.56 1018.76 1017.84 1016.71 1015.96 1015.43 1014.55 1012.76 1013.26 1012.19 1011.80 1011.81 1011.77 1009.88 1004.08 1001.84 1000.48 1000.63 1000.90 1000.75 999.61 999.66 999.96 1001.01 1001.79 1003.07 1003.68 1003.46 1003.83 1004.24 1004.52 1004.73 1005.04 1004.69 1004.98 1005.30 1005.57 1005.67
1024.78 1024.33 1023.81 1023.29 1022.74 1022.16 1021.54 1020.84 1020.10 1019.46 1018.70 1017.69 1016.55 1015.93 1015.41 1015.07 1014.79 1013.90 1012.05 1011.62 1011.33 1011.27 1008.10 1001.91 1000.63 999.54 999.76 999.93 999.19 998.94 998.83 999.30 999.83 1000.64 1001.97 1002.05 1002.23 1002.88 1003.16 1002.97 1003.90 1003.96 1004.26 1004.91 1005.38 1005.86 1006.15
1024.87 1024.39 1023.87 1023.36 1022.82 1022.24 1021.59 1020.89 1020.12 1019.41 1018.66 1017.55 1016.25 1015.62 1015.45 1014.88 1014.81 1013.10 1012.38 1011.75 1011.28 1010.63 1005.81 1001.36 1000.23 999.97 1000.27 999.91 999.19 999.00 999.04 999.11 999.54 1000.64 1001.02 1001.32 1001.18 1001.53 1001.53 1002.35 1002.95 1003.66 1004.35 1005.46 1006.21 1006.54 1006.17
1024.91 1024.46 1023.94 1023.40 1022.82 1022.19 1021.49 1020.73 1019.94 1019.22 1018.50 1017.51 1016.23 1015.57 1014.89 1014.68 1013.95 1012.53 1012.37 1011.65 1011.33 1008.90 1004.11 1002.86 1001.80 1001.31 1001.08 1000.41 999.77 999.39 999.53 999.07 998.85 1000.25 1000.77 1001.16 1000.96 1000.64 1000.70 1001.90 1002.72 1003.44 1004.95 1006.66 1007.30 1007.16 1004.70
1024.87 1024.34 1023.80 1023.23 1022.70 1022.10 1021.44 1020.70 1019.93 1019.19 1018.39 1017.41 1016.09 1015.27 1014.55 1013.99 1013.08 1012.76 1012.68 1012.17 1010.75 1007.15 1005.47 1004.21 1003.16 1002.39 1002.06 1001.63 1000.98 1000.25 999.90 999.85 999.61 999.80 1000.64 1001.12 1000.95 1000.11 999.92 1000.13 1001.57 1002.96 1004.32 1005.68 1006.39 1006.26 1005.30
1024.77 1024.27 1023.75 1023.17 1022.58 1021.96 1021.35 1020.64 1019.83 1019.08 1018.29 1017.37 1015.96 1015.30 1014.69 1013.57 1013.10 1013.01 1013.06 1012.22 1009.94 1008.37 1006.91 1005.65 1004.31 1003.83 1003.48 1002.94 1002.34 1001.51 1001.39 1000.98 1000.45 1000.11 1000.76 1001.02 1000.36 999.00 999.08 999.44 1000.42 1002.68 1003.37 1003.90 1005.56 1006.14 1005.65
1024.83 1024.28 1023.72 1023.13 1022.51 1021.90 1021.20 1020.56 1019.84 1019.10 1018.24 1017.40 1016.96 1016.45 1014.97 1013.63 1013.05 1013.24 1013.58 1012.56 1010.72 1009.18 1008.19 1006.92 1006.19 1005.40 1005.08 1004.47 1003.69 1003.21 1002.91 1003.52 1002.40 1001.75 1001.43 1000.93 1000.76 999.43 998.79 999.12 999.87 1000.51 1001.87 1003.90 1005.15 1005.87 1005.39
1024.76 1024.22 1023.67 1023.07 1022.44 1021.82 1021.14 1020.47 1019.83 1019.13 1018.42 1017.66 1017.58 1016.96 1014.26 1013.58 1013.35 1013.98 1014.55 1013.84 1012.01 1010.42 1009.26 1008.33 1007.52 1007.02 1006.40 1005.93 1005.35 1004.93 1004.65 1004.71 1003.97 1003.19 1002.57 1002.40 1001.69 1000.47 999.41 998.83 998.89 1000.05 1000.89 1002.34 1003.37 1004.22 1004.13
1024.73 1024.22 1023.65 1022.99 1022.37 1021.74 1021.08 1020.44 1019.88 1019.28 1018.67 1018.20 1018.66 1017.79 1014.62 1014.17 1015.01 1015.84 1015.54 1014.63 1013.36 1011.35 1010.38 1009.39 1008.50 1008.08 1007.60 1007.04 1006.61 1006.16 1005.97 1005.95 1005.49 1004.73 1004.62 1004.31 1003.58 1002.18 1000.31 998.99 998.55 998.64 999.41 1000.74 1002.09 1002.92 1003.01
1024.68 1024.08 1023.45 1022.84 1022.26 1021.57 1020.92 1020.30 1019.83 1019.37 1019.09 1019.30 1019.19 1018.50 1015.65 1015.24 1016.84 1016.98 1016.20 1014.91 1013.71 1013.14 1011.87 1010.76 1009.94 1009.39 1008.70 1008.47 1008.15 1007.54 1007.18 1006.88 1006.43 1005.80 1005.90 1005.36 1005.07 1003.88 1001.93 1000.60 999.29 999.38 999.51 999.95 1000.37 1001.10 1000.88
1024.59 1023.86 1023.20 1022.57 1021.96 1021.34 1020.69 1020.17 1019.81 1019.43 1019.18 1019.55 1019.85 1019.36 1018.01 1017.28 1017.94 1018.03 1017.22 1015.72 1014.39 1013.55 1013.01 1012.50 1011.44 1010.43 1010.07 1009.75 1009.26 1008.93 1008.29 1007.71 1007.25 1006.86 1006.54 1006.33 1006.25 1005.52 1004.05 1002.84 1002.21 1000.87 999.77 999.61 999.99 999.83 999.46
1024.35 1023.75 1023.10 1022.49 1021.83 1021.16 1020.61 1020.08 1019.74 1019.43 1019.23 1019.72 1020.09 1020.08 1019.47 1018.75 1018.42 1018.09 1017.68 1016.50 1015.34 1014.54 1013.79 1013.39 1012.59 1012.04 1011.59 1011.05 1010.56 1010.17 1009.58 1008.94 1008.14 1007.85 1007.64 1007.58 1007.49 1006.48 1005.37 1003.85 1002.78 1001.53 1000.56 999.87 999.42 998.59 997.75
1024.16 1023.52 1022.89 1022.34 1021.79 1021.18 1020.58 1020.07 1019.65 1019.34 1019.30 1019.86 1020.11 1020.04 1019.50 1019.00 1018.41 1017.92 1017.34 1016.73 1015.91 1015.31 1014.96 1013.87 1013.63 1013.11 1012.41 1012.05 1011.59 1011.47 1011.15 1010.44 1009.73 1008.96 1008.80 1008.70 1008.34 1007.48 1006.25 1004.46 1002.63 1001.54 1000.33 999.46 998.77 998.17 997.30
1023.98 1023.41 1022.82 1022.21 1021.68 1021.09 1020.53 1020.07 1019.62 1019.26 1019.31 1019.87 1019.72 1019.53 1019.29 1018.65 1018.25 1018.06 1017.29 1016.64 1016.04 1015.91 1014.78 1014.33 1014.21 1013.60 1012.87 1012.16 1011.97 1011.69 1011.52 1011.14 1010.67 1010.51 1009.91 1009.60 1009.09 1008.38 1006.64 1004.97 1003.52 1000.84 998.81 998.11 997.44 996.83 996.50
1023.83 1023.26 1022.72 1022.27 1021.71 1021.17 1020.51 1019.79 1019.41 1019.14 1019.24 1019.62 1019.46 1019.40 1019.10 1018.37 1017.95 1017.43 1016.94 1016.49 1016.01 1015.88 1015.49 1014.59 1014.10 1013.61 1012.75 1012.14 1011.57 1011.07 1011.01 1010.78 1010.52 1010.12 1010.16 1009.91 1009.69 1009.03 1007.52 1005.51 1003.00 999.66 997.95 996.74 996.28 995.50 995.14
1023.47 1022.91 1022.34 1021.83 1021.30 1020.81 1020.25 1019.69 1019.15 1018.81 1018.66 1019.36 1019.29 1019.38 1018.74 1017.91 1017.44 1016.84 1016.31 1015.97 1015.84 1015.49 1015.11 1014.37 1013.46 1013.05 1012.73 1012.65 1012.20 1011.49 1011.00 1010.70 1009.74 1009.12 1009.07 1009.24 1009.52 1008.90 1007.79 1005.59 1001.68 999.58 998.34 997.83 997.58 996.11 994.80
1023.26 1022.54 1022.04 1021.60 1021.00 1020.47 1019.96 1019.39 1018.84 1018.42 1018.12 1018.56 1018.73 1018.77 1018.71 1017.85 1016.53 1016.25 1016.13 1015.87 1015.72 1015.43 1014.74 1014.02 1013.24 1012.51 1012.60 1012.88 1012.73 1012.26 1011.41 1010.48 1009.54 1008.46 1007.55 1008.75 1008.86 1008.63 1007.16 1005.09 1001.89 999.29 998.64 997.81 997.87 997.09 995.68
1022.93 1022.39 1021.79 1021.08 1020.52 1019.99 1019.46 1018.93 1018.42 1018.02 1017.79 1018.04 1018.17 1018.14 1018.20 1017.31 1015.76 1015.67 1015.33 1015.24 1015.15 1015.01 1014.80 1014.31 1013.92 1013.26 1012.88 1013.02 1012.90 1012.40 1011.49 1010.29 1009.69 1008.71 1008.50 1008.72 1008.74 1007.87 1006.37 1004.45 1001.47 999.49 998.47 997.57 997.97 997.04 996.06
1022.49 1021.84 1021.14 1020.48 1019.99 1019.45 1018.82 1018.32 1017.92 1017.45 1017.16 1017.60 1017.48 1017.51 1017.54 1016.63 1015.15 1014.73 1014.45 1014.36 1014.30 1014.54 1014.62 1014.38 1014.27 1013.67 1013.48 1013.22 1012.79 1012.26 1011.41 1010.31 1009.48 1008.35 1007.65 1007.51 1007.36 1006.76 1006.32 1004.00 1001.53 999.60 998.84 998.57 997.84 996.98 996.84
1021.94 1021.26 1020.40 1019.89 1019.18 1018.47 1017.88 1017.33 1016.90 1016.51 1016.30 1016.41 1016.78 1016.62 1016.77 1016.51 1014.55 1013.80 1013.37 1012.85 1012.68 1013.03 1013.62 1013.93 1013.60 1013.66 1013.38 1013.20 1013.09 1012.60 1011.79 1010.77 1009.67 1008.45 1006.82 1006.87 1005.57 1004.64 1003.86 1001.58 1000.02 999.13 998.95 998.61 998.22 997.83 996.98
Wind_Speed
15 16 17 18 18 18 20 20 21 20 21 23 24 24 24 24 24 24 24 24 23 23 21 18 15 12 6 3 14 6 17 19 17 9 19 13 16 6 8 5 6 6 9 6 13 7 10
15 16 17 17 17 18 19 20 21 21 21 22 23 23 24 24 25 26 25 23 22 23 22 18 13 7 3 8 6 5 11 17 15 14 9 9 12 9 5 3 8 5 12 16 9 9 5
18 18 19 19 19 19 19 20 21 21 22 23 23 24 24 25 27 28 28 27 26 24 22 18 13 7 3 18 3 7 9 9 17 15 9 6 6 13 6 2 8 6 5 6 8 6 8
18 19 19 19 20 19 19 20 21 21 22 23 24 25 26 26 27 29 31 31 28 22 14 10 15 8 11 5 5 6 6 3 9 5 1 8 6 4 3 3 5 3 2 4 3 6 3
18 18 19 20 20 19 19 20 22 22 23 23 24 25 27 29 29 30 32 29 15 7 10 19 10 5 11 2 4 7 10 10 8 4 3 6 6 6 1 2 5 3 5 6 4 5 4
19 20 20 21 22 20 20 21 22 22 23 24 25 26 27 28 30 31 32 21 6 6 8 6 4 1 5 6 4 5 6 11 6 10 5 6 4 5 2 7 13 6 4 4 4 1 5
19 19 19 21 21 21 22 22 23 24 25 25 26 26 28 29 30 32 16 3 5 2 3 9 5 6 4 5 2 4 6 8 7 5 9 6 5 14 7 7 6 5 4 4 1 4 4
19 19 20 21 21 22 23 23 24 24 25 26 27 27 28 31 31 26 6 6 6 4 15 14 24 19 17 4 4 4 11 9 8 7 8 4 19 9 10 9 8 5 5 8 3 6 2
20 20 20 20 20 21 22 22 23 23 25 26 27 28 27 30 34 5 4 4 4 2 5 10 8 7 8 13 11 9 13 7 7 10 14 15 7 12 12 7 9 7 12 5 4 3 2
19 18 19 19 20 20 21 22 22 23 25 26 28 27 27 29 6 6 5 2 5 4 4 9 5 7 5 9 7 10 15 8 5 22 9 6 5 13 8 13 10 8 8 6 7 5 4
18 18 19 20 21 21 22 23 23 23 24 26 28 26 25 16 5 4 7 12 11 2 7 1 2 1 5 7 1 7 6 2 11 9 10 10 13 14 14 9 8 8 9 9 6 5 4
19 20 21 22 22 22 21 21 22 23 24 27 29 28 27 1 2 7 10 12 1 4 12 3 3 1 4 4 5 4 7 2 6 6 1 9 5 14 12 7 10 7 4 6 6 4 5
20 21 21 22 22 21 21 22 23 24 24 26 28 29 21 2 5 4 7 4 3 6 6 5 4 5 5 4 2 5 11 14 12 9 8 5 15 3 6 8 4 7 9 2 2 4 11
20 20 20 20 21 21 21 22 22 23 24 26 29 26 4 4 7 5 4 5 5 3 4 4 5 7 3 7 4 6 10 16 5 6 7 12 7 20 6 10 10 8 10 8 9 5 6
21 21 21 21 21 21 22 22 22 23 24 24 25 5 5 4 7 2 5 2 6 3 6 9 7 5 4 6 1 4 5 9 6 4 8 9 11 3 7 6 17 6 12 9 5 1 2
22 22 22 22 21 21 21 21 21 22 23 23 6 5 6 7 6 4 5 5 5 6 13 5 4 4 5 6 5 6 5 7 11 7 4 3 1 6 15 6 6 12 9 5 1 8 7
22 22 22 21 21 21 21 20 20 20 21 18 4 5 5 12 3 6 3 5 7 10 11 5 5 6 4 4 5 4 4 6 11 9 8 5 4 2 7 9 19 4 6 4 6 7 7
21 21 21 21 21 22 22 20 18 18 17 7 3 5 5 8 6 2 4 7 10 12 7 6 5 4 4 4 3 4 4 5 11 7 4 1 3 7 7 3 8 22 15 9 7 11 3
19 20 20 21 21 20 21 20 15 14 11 3 5 4 6 4 5 4 6 7 2 10 10 7 5 5 4 5 3 5 3 4 12 9 4 6 2 2 5 4 2 5 13 9 6 3 16
20 21 20 19 20 20 20 17 13 11 9 3 3 6 5 4 2 3 6 5 6 6 5 10 5 5 6 6 4 3 5 6 7 4 8 2 2 3 3 1 2 6 5 9 14 13 17
19 20 20 20 20 19 18 16 13 10 6 3 3 3 2 5 4 5 2 4 7 8 6 5 7 11 5 3 5 4 6 5 5 6 4 4 1 2 1 10 6 10 12 10 10 21 16
18 19 20 20 20 20 18 16 13 10 5 2 2 1 1 4 6 8 4 4 5 8 4 6 3 13 12 3 3 3 6 3 4 5 4 4 2 2 4 9 11 9 12 12 12 11 10
18 19 20 20 20 20 17 16 15 9 5 0 2 3 2 3 2 3 3 4 6 11 9 6 10 13 5 7 4 8 7 9 9 4 2 2 1 2 5 4 8 12 9 16 12 8 12
18 19 20 21 20 20 19 16 14 9 7 3 3 1 2 3 4 5 10 12 14 11 10 15 14 12 5 7 8 6 6 10 9 12 10 3 3 2 5 3 10 6 6 5 12 19 16
18 19 18 19 19 19 19 19 15 12 1 3 2 2 3 4 5 11 10 12 6 10 7 8 11 5 5 4 4 6 3 1 8 15 14 15 5 3 4 5 9 17 4 5 1 9 9
20 19 19 20 20 19 19 18 18 14 8 3 3 3 2 4 5 7 4 11 10 6 5 4 7 8 2 2 1 3 4 4 4 4 12 8 11 3 3 6 7 1 3 8 5 6 11
21 21 21 21 21 21 20 19 18 17 10 4 3 5 2 4 7 9 6 5 4 4 4 8 5 6 3 2 3 4 5 3 4 4 4 5 5 14 11 5 7 4 10 4 6 6 18
20 21 22 22 23 23 23 23 21 19 15 2 3 5 3 4 9 10 14 12 10 6 5 3 5 1 1 3 2 2 3 3 4 9 4 7 9 7 6 6 12 3 6 2 6 10 13
20 21 23 23 23 24 23 22 22 19 16 8 3 3 4 5 9 10 14 16 20 19 7 5 4 2 4 1 2 2 3 3 1 5 4 9 8 5 10 8 7 4 6 5 4 10 9
Wind_Direction
0 358 358 358 357 354 352 349 346 344 343 341 338 335 333 331 327 323 318 314 309 307 302 296 293 302 328 240 246 157 100 138 161 173 164 163 169 174 179 198 227 240 254 272 264 276 213
354 355 356 357 356 353 350 347 346 342 339 337 333 331 329 328 325 321 317 310 303 299 293 284 275 265 215 238 233 199 139 142 164 171 176 157 181 187 216 216 174 228 232 250 278 258 213
7 6 359 358 354 350 347 346 345 343 338 334 331 330 329 327 325 321 317 312 307 298 285 270 236 193 231 229 146 76 142 169 166 177 163 205 167 169 165 296 225 269 284 269 251 255 213
10 4 2 360 357 351 347 345 345 341 338 335 333 331 329 327 325 322 319 316 311 302 277 229 181 179 241 237 272 260 206 127 179 176 170 198 131 122 168 269 351 253 151 213 242 161 198
6 2 1 360 356 353 350 349 346 342 339 336 334 332 330 328 327 324 321 319 331 42 101 128 133 200 258 194 200 210 174 194 143 172 187 128 115 186 193 148 352 326 229 213 313 235 149
4 0 0 359 355 350 350 349 346 343 340 337 335 333 330 330 327 326 324 315 269 85 115 186 125 306 246 218 193 165 177 148 157 128 116 159 118 159 142 159 210 209 211 250 202 130 159
3 359 1 358 355 354 352 349 347 344 341 338 335 334 332 332 329 329 333 6 5 357 327 218 202 270 286 270 278 181 153 136 119 129 155 185 171 208 180 182 178 193 192 235 227 229 142
360 359 0 357 356 354 352 349 347 345 341 337 334 333 333 330 327 324 330 69 90 227 298 244 246 252 257 28 341 221 137 140 160 167 129 125 222 189 177 190 182 198 230 248 290 247 150
4 1 357 355 353 350 348 345 343 342 338 335 331 332 336 334 324 21 312 113 87 309 241 277 210 225 215 167 217 233 164 153 146 159 183 197 218 168 188 176 180 199 206 214 167 335 279
360 356 353 352 350 348 345 342 340 339 336 332 327 331 338 339 29 324 282 41 333 204 316 271 234 256 142 136 235 202 185 150 161 197 127 206 209 188 174 203 174 214 182 160 164 119 217
356 353 352 352 350 347 344 341 339 339 336 331 324 329 335 334 267 304 290 341 325 116 322 285 185 65 166 194 204 207 169 133 174 164 147 213 178 180 206 189 164 220 151 181 163 187 153
355 353 352 351 349 346 343 341 338 338 336 330 324 326 330 350 264 255 313 307 75 55 249 332 78 61 118 242 306 88 178 195 139 129 279 195 197 188 195 180 177 158 100 62 48 100 237
353 351 348 346 344 343 342 341 338 338 336 328 321 325 324 273 265 316 330 359 65 195 332 1 339 12 348 319 240 143 196 186 167 144 186 192 221 211 150 161 143 144 106 312 304 195 240
349 345 343 343 341 340 339 337 334 334 333 328 322 322 299 237 280 313 10 63 218 236 304 339 339 313 102 344 5 324 164 192 230 112 138 179 221 209 197 189 178 182 154 167 201 213 230
347 344 341 339 337 336 335 335 335 334 333 332 324 332 311 277 316 51 50 162 216 327 356 332 309 47 358 345 45 354 3 210 207 183 168 177 239 248 183 163 159 184 199 169 79 239 31
344 340 337 334 332 331 332 333 334 334 334 336 331 345 282 311 319 56 67 272 289 15 349 333 318 33 29 324 36 34 25 343 338 12 358 247 221 209 205 120 190 160 159 128 5 187 243
340 337 334 331 331 329 330 332 335 333 333 334 25 2 269 335 46 43 79 291 302 350 339 325 345 326 358 13 9 8 350 47 359 340 37 5 121 292 112 198 196 146 179 101 140 157 180
338 334 332 333 334 333 331 330 333 331 337 38 32 343 315 349 49 41 344 314 325 331 344 322 332 21 340 359 347 5 53 48 354 331 25 32 109 216 207 232 231 210 200 158 172 221 221
337 335 335 335 337 334 334 330 333 333 1 341 340 291 312 46 55 346 323 299 348 336 329 341 317 6 342 7 31 23 18 91 7 15 44 326 2 71 22 335 323 184 226 194 209 89 212
337 338 338 336 336 337 340 342 335 334 352 79 5 339 325 19 64 15 328 296 327 344 345 331 316 36 9 12 4 355 356 23 326 354 32 69 105 126 216 232 343 305 303 200 205 224 231
334 337 338 338 337 338 342 347 343 337 353 83 35 278 245 321 336 321 279 276 327 355 357 351 350 12 353 341 345 8 8 338 319 21 26 84 210 348 292 283 249 243 256 263 238 228 221
334 335 337 338 338 337 340 345 343 345 107 54 277 285 352 278 279 315 332 299 340 338 313 324 332 343 331 288 6 316 17 321 273 336 40 1 228 135 268 270 292 284 265 259 242 237 258
333 335 336 338 338 338 338 338 340 346 106 100 276 249 220 273 270 296 257 286 313 326 283 244 312 321 307 313 319 261 222 240 242 309 314 37 100 38 254 263 313 285 238 239 241 198 216
330 333 336 336 336 338 337 332 333 343 186 174 226 265 269 277 272 280 276 293 290 294 274 287 288 276 260 340 297 279 229 229 246 244 220 191 135 162 258 310 240 246 271 258 256 236 217
326 327 329 327 329 332 331 333 335 330 288 163 226 216 262 271 287 277 280 291 303 295 268 254 267 265 317 282 300 325 335 280 237 230 212 203 165 223 209 224 298 307 11 6 59 288 265
326 324 325 323 321 321 322 323 324 329 331 134 222 177 258 288 231 254 288 290 295 281 300 274 323 317 45 88 42 231 230 240 274 265 223 176 219 231 153 206 233 237 248 282 150 260 8
324 323 321 317 315 314 312 312 312 315 318 158 248 181 242 259 253 244 234 259 211 246 274 300 322 318 38 223 241 226 244 229 253 268 160 150 182 217 239 250 285 267 303 305 185 289 318
318 315 313 311 312 311 308 305 306 303 299 249 257 186 213 247 271 231 245 247 250 234 253 309 332 286 346 224 237 251 265 268 272 228 224 174 174 183 217 241 240 327 327 278 335 307 305
314 312 308 309 307 307 305 301 297 292 294 279 230 174 190 236 265 278 252 242 231 224 230 194 239 329 252 116 234 266 277 286 242 270 230 230 208 213 198 207 238 180 209 264 278 293 300